ISIS 1

Last updated on Mon Sep 21 2026 00:02:07 GMT+0000 (Coordinated Universal Time)

1 03669U 69009A 26263.07724951 .00000100 00000+0 56196-4 0 9993 2 03669 88.4383 133.9797 1707963 56.6970 318.6159 11.30450061370492
UTC large
Height (km)
Speed (km/s)
/
Latitude / Longitude
Inclination (degrees)
Orbital Period (minutes)
Azimuth
Elevation
Range (km)
Doppler Factor

Next 0 passes for location: London (51.5072 / 0.1276)

No passes found over London.
ISIS 1